QPF
0.02 0.01 0.01 0.01 0.02 0.03 0.04 0.05 0.04 0.03 0.04 0.05 0.05 0.07 0.07 0.05 0.03 0.03 0.03 0.03 0.04 0.04 0.06 0.07 0.09 0.09 0.09 0.09 0.08 0.09 0.09 0.08 0.08 0.08 0.07 0.07 0.03 0.03 0.03 0.03 0.03 0.01 0.02
0.02 0.01 0.01 0.02 0.02 0.03 0.03 0.04 0.03 0.02 0.02 0.02 0.04 0.05 0.05 0.04 0.04 0.03 0.04 0.03 0.03 0.04 0.05 0.08 0.08 0.09 0.10 0.10 0.09 0.09 0.08 0.06 0.07 0.08 0.11 0.09 0.08 0.05 0.03 0.03 0.03 0.02 0.02
0.02 0.02 0.01 0.01 0.02 0.03 0.03 0.03 0.04 0.02 0.01 0.02 0.03 0.04 0.05 0.05 0.05 0.04 0.03 0.02 0.01 0.02 0.02 0.03 0.05 0.07 0.07 0.11 0.11 0.09 0.09 0.07 0.06 0.07 0.11 0.12 0.13 0.09 0.05 0.04 0.03 0.03 0.04
0.02 0.01 0.01 0.01 0.01 0.02 0.03 0.04 0.04 0.03 0.03 0.02 0.02 0.04 0.04 0.05 0.05 0.04 0.03 0.02 0.02 0.01 0.02 0.02 0.02 0.04 0.05 0.10 0.08 0.10 0.09 0.09 0.06 0.07 0.07 0.10 0.12 0.11 0.10 0.08 0.03 0.03 0.03
0.01 0.00 0.00 0.00 0.00 0.01 0.01 0.03 0.06 0.05 0.05 0.04 0.03 0.03 0.03 0.03 0.03 0.03 0.04 0.03 0.02 0.03 0.03 0.04 0.03 0.03 0.04 0.07 0.07 0.08 0.08 0.08 0.06 0.06 0.07 0.09 0.12 0.09 0.10 0.11 0.07 0.04 0.02
0.01 0.01 0.01 0.00 0.00 0.01 0.02 0.02 0.05 0.06 0.06 0.05 0.03 0.03 0.03 0.04 0.05 0.05 0.04 0.03 0.02 0.02 0.02 0.03 0.05 0.04 0.06 0.07 0.06 0.07 0.08 0.07 0.07 0.06 0.06 0.09 0.11 0.10 0.10 0.11 0.09 0.06 0.04
0.01 0.01 0.01 0.01 0.01 0.01 0.01 0.02 0.03 0.04 0.05 0.05 0.05 0.05 0.05 0.06 0.05 0.04 0.04 0.04 0.03 0.02 0.02 0.03 0.04 0.05 0.05 0.05 0.06 0.07 0.08 0.06 0.06 0.05 0.05 0.07 0.08 0.08 0.08 0.10 0.09 0.07 0.05
0.03 0.01 0.01 0.02 0.01 0.00 0.00 0.01 0.02 0.03 0.05 0.07 0.08 0.09 0.10 0.08 0.05 0.04 0.04 0.04 0.03 0.03 0.03 0.03 0.03 0.03 0.03 0.05 0.07 0.06 0.06 0.06 0.06 0.05 0.07 0.06 0.06 0.07 0.07 0.08 0.11 0.11 0.12
0.02 0.01 0.00 0.03 0.04 0.02 0.00 0.00 0.01 0.02 0.05 0.11 0.15 0.17 0.15 0.11 0.08 0.07 0.04 0.03 0.02 0.02 0.02 0.02 0.04 0.04 0.04 0.04 0.06 0.06 0.07 0.08 0.06 0.06 0.06 0.06 0.05 0.04 0.05 0.06 0.10 0.17 0.17
0.01 0.01 0.00 0.02 0.05 0.05 0.02 0.00 0.00 0.01 0.01 0.03 0.05 0.07 0.08 0.07 0.07 0.07 0.06 0.05 0.03 0.02 0.04 0.05 0.06 0.06 0.05 0.04 0.05 0.05 0.06 0.06 0.05 0.05 0.06 0.06 0.04 0.04 0.04 0.04 0.06 0.07 0.09
0.02 0.04 0.01 0.00 0.03 0.07 0.04 0.01 0.00 0.00 0.01 0.01 0.02 0.02 0.04 0.07 0.08 0.06 0.05 0.05 0.05 0.05 0.06 0.07 0.06 0.06 0.06 0.06 0.05 0.05 0.05 0.04 0.04 0.04 0.05 0.05 0.05 0.05 0.04 0.04 0.04 0.05 0.07
0.03 0.06 0.02 0.00 0.01 0.03 0.04 0.04 0.02 0.00 0.00 0.01 0.01 0.01 0.02 0.04 0.05 0.04 0.04 0.04 0.05 0.06 0.05 0.05 0.06 0.07 0.07 0.07 0.06 0.05 0.05 0.04 0.05 0.04 0.05 0.05 0.06 0.08 0.07 0.07 0.05 0.05 0.07
0.01 0.02 0.02 0.01 0.00 0.00 0.01 0.01 0.02 0.01 0.00 0.01 0.01 0.02 0.02 0.03 0.04 0.05 0.05 0.05 0.06 0.06 0.06 0.06 0.05 0.05 0.05 0.06 0.06 0.06 0.07 0.05 0.05 0.05 0.06 0.05 0.07 0.10 0.09 0.08 0.05 0.04 0.04
0.00 0.00 0.01 0.01 0.01 0.01 0.01 0.01 0.02 0.03 0.02 0.01 0.02 0.03 0.03 0.04 0.04 0.04 0.04 0.05 0.06 0.07 0.07 0.07 0.06 0.05 0.04 0.04 0.04 0.05 0.06 0.05 0.05 0.06 0.08 0.07 0.09 0.10 0.11 0.07 0.06 0.06 0.06
0.00 0.00 0.00 0.01 0.02 0.01 0.01 0.03 0.07 0.10 0.08 0.04 0.04 0.06 0.05 0.05 0.04 0.04 0.04 0.05 0.05 0.05 0.06 0.07 0.07 0.06 0.05 0.03 0.03 0.04 0.04 0.05 0.05 0.06 0.07 0.07 0.06 0.06 0.06 0.04 0.06 0.06 0.06
0.00 0.00 0.00 0.00 0.01 0.01 0.01 0.01 0.03 0.07 0.07 0.05 0.05 0.06 0.07 0.09 0.08 0.05 0.05 0.06 0.06 0.07 0.06 0.06 0.07 0.07 0.04 0.03 0.03 0.03 0.04 0.05 0.05 0.06 0.05 0.05 0.04 0.03 0.02 0.02 0.03 0.04 0.05
0.01 0.01 0.00 0.00 0.00 0.01 0.01 0.01 0.02 0.02 0.03 0.03 0.04 0.06 0.09 0.11 0.12 0.09 0.07 0.07 0.07 0.08 0.07 0.07 0.07 0.06 0.05 0.03 0.03 0.02 0.03 0.05 0.06 0.06 0.06 0.03 0.02 0.03 0.03 0.02 0.01 0.02 0.02
0.03 0.02 0.01 0.01 0.01 0.01 0.01 0.01 0.01 0.02 0.01 0.02 0.02 0.06 0.09 0.12 0.10 0.09 0.09 0.10 0.10 0.11 0.11 0.10 0.08 0.08 0.06 0.04 0.04 0.05 0.05 0.05 0.05 0.04 0.03 0.02 0.02 0.03 0.04 0.04 0.03 0.02 0.01
0.02 0.02 0.02 0.01 0.01 0.01 0.01 0.01 0.01 0.02 0.02 0.02 0.03 0.04 0.04 0.05 0.07 0.09 0.10 0.13 0.13 0.12 0.10 0.09 0.08 0.07 0.07 0.08 0.07 0.07 0.05 0.03 0.03 0.03 0.03 0.04 0.04 0.03 0.05 0.06 0.05 0.04 0.03
0.03 0.02 0.03 0.02 0.01 0.00 0.01 0.01 0.02 0.03 0.03 0.03 0.04 0.05 0.05 0.05 0.05 0.05 0.07 0.09 0.11 0.12 0.12 0.11 0.08 0.06 0.07 0.07 0.07 0.08 0.06 0.05 0.06 0.07 0.05 0.04 0.03 0.04 0.04 0.05 0.06 0.05 0.04
0.02 0.02 0.02 0.02 0.02 0.01 0.01 0.02 0.02 0.03 0.05 0.07 0.06 0.06 0.06 0.06 0.06 0.06 0.06 0.07 0.08 0.09 0.09 0.09 0.09 0.08 0.08 0.06 0.05 0.07 0.08 0.08 0.12 0.11 0.08 0.06 0.04 0.04 0.04 0.05 0.05 0.04 0.04
0.01 0.02 0.02 0.01 0.01 0.02 0.02 0.02 0.02 0.02 0.04 0.06 0.06 0.06 0.06 0.05 0.05 0.07 0.07 0.06 0.06 0.06 0.08 0.09 0.10 0.09 0.07 0.06 0.05 0.07 0.09 0.11 0.14 0.13 0.12 0.08 0.06 0.05 0.06 0.06 0.05 0.04 0.04
0.01 0.01 0.01 0.01 0.01 0.01 0.02 0.03 0.03 0.03 0.04 0.05 0.06 0.07 0.06 0.06 0.07 0.08 0.08 0.07 0.07 0.06 0.06 0.08 0.08 0.07 0.08 0.07 0.06 0.06 0.09 0.10 0.11 0.10 0.09 0.07 0.06 0.06 0.06 0.06 0.05 0.04 0.05
0.00 0.01 0.01 0.01 0.01 0.01 0.02 0.03 0.03 0.03 0.03 0.04 0.05 0.06 0.06 0.06 0.08 0.08 0.07 0.06 0.06 0.05 0.06 0.07 0.06 0.06 0.07 0.06 0.06 0.07 0.09 0.07 0.05 0.05 0.06 0.05 0.04 0.03 0.03 0.04 0.04 0.03 0.03
0.00 0.00 0.01 0.01 0.01 0.02 0.02 0.03 0.03 0.03 0.04 0.03 0.03 0.04 0.04 0.05 0.07 0.08 0.08 0.08 0.07 0.05 0.05 0.05 0.05 0.06 0.07 0.07 0.07 0.06 0.06 0.05 0.04 0.03 0.03 0.04 0.05 0.04 0.04 0.05 0.05 0.04 0.04
0.01 0.01 0.02 0.02 0.02 0.02 0.02 0.02 0.03 0.03 0.04 0.04 0.03 0.03 0.04 0.05 0.06 0.08 0.09 0.10 0.09 0.08 0.07 0.06 0.05 0.05 0.06 0.06 0.07 0.06 0.04 0.03 0.02 0.02 0.03 0.04 0.04 0.05 0.05 0.05 0.05 0.05 0.06
MSLP
1008.66 1009.14 1009.47 1009.64 1009.67 1009.62 1009.54 1009.49 1009.51 1009.60 1009.76 1009.95 1010.14 1010.28 1010.35 1010.36 1010.33 1010.28 1010.24 1010.25 1010.32 1010.44 1010.60 1010.79 1010.98 1011.14 1011.28 1011.40 1011.49 1011.59 1011.69 1011.79 1011.90 1011.99 1012.04 1012.04 1011.98 1011.86 1011.69 1011.49 1011.32 1011.19 1011.13
1008.54 1009.19 1009.67 1009.97 1010.08 1010.07 1009.99 1009.92 1009.90 1009.95 1010.07 1010.22 1010.37 1010.47 1010.51 1010.47 1010.37 1010.25 1010.14 1010.09 1010.10 1010.19 1010.34 1010.53 1010.71 1010.88 1011.00 1011.08 1011.14 1011.17 1011.22 1011.27 1011.34 1011.43 1011.50 1011.54 1011.53 1011.47 1011.35 1011.19 1011.03 1010.88 1010.78
1008.24 1009.05 1009.70 1010.13 1010.35 1010.41 1010.37 1010.30 1010.27 1010.30 1010.40 1010.53 1010.66 1010.74 1010.76 1010.69 1010.55 1010.38 1010.22 1010.11 1010.07 1010.11 1010.22 1010.37 1010.53 1010.66 1010.74 1010.77 1010.77 1010.74 1010.73 1010.74 1010.79 1010.88 1010.98 1011.08 1011.15 1011.16 1011.11 1011.00 1010.85 1010.70 1010.55
1007.76 1008.72 1009.52 1010.10 1010.45 1010.60 1010.63 1010.59 1010.57 1010.60 1010.69 1010.82 1010.96 1011.05 1011.07 1011.00 1010.86 1010.67 1010.47 1010.31 1010.22 1010.20 1010.25 1010.34 1010.44 1010.51 1010.53 1010.51 1010.44 1010.35 1010.28 1010.26 1010.30 1010.39 1010.53 1010.69 1010.83 1010.92 1010.94 1010.88 1010.76 1010.59 1010.40
1007.16 1008.24 1009.18 1009.91 1010.39 1010.66 1010.76 1010.78 1010.78 1010.83 1010.93 1011.08 1011.24 1011.36 1011.42 1011.38 1011.26 1011.07 1010.86 1010.67 1010.53 1010.45 1010.43 1010.45 1010.47 1010.47 1010.42 1010.33 1010.19 1010.05 1009.94 1009.89 1009.91 1010.01 1010.17 1010.37 1010.57 1010.72 1010.79 1010.77 1010.66 1010.48 1010.25
1006.52 1007.69 1008.76 1009.62 1010.23 1010.60 1010.79 1010.87 1010.91 1010.99 1011.11 1011.29 1011.49 1011.66 1011.77 1011.78 1011.70 1011.54 1011.34 1011.13 1010.95 1010.81 1010.72 1010.66 1010.60 1010.53 1010.42 1010.26 1010.08 1009.90 1009.74 1009.66 1009.66 1009.76 1009.92 1010.14 1010.36 1010.53 1010.63 1010.63 1010.53 1010.33 1010.06
1005.95 1007.18 1008.34 1009.30 1010.02 1010.49 1010.76 1010.90 1010.99 1011.09 1011.24 1011.45 1011.68 1011.90 1012.07 1012.14 1012.12 1012.00 1011.82 1011.61 1011.41 1011.23 1011.08 1010.96 1010.84 1010.70 1010.53 1010.34 1010.11 1009.90 1009.72 1009.60 1009.58 1009.65 1009.79 1009.99 1010.19 1010.35 1010.45 1010.44 1010.32 1010.11 1009.82
1005.52 1006.78 1007.99 1009.03 1009.83 1010.38 1010.72 1010.91 1011.03 1011.15 1011.32 1011.55 1011.81 1012.07 1012.28 1012.42 1012.45 1012.39 1012.24 1012.05 1011.84 1011.64 1011.46 1011.28 1011.12 1010.95 1010.75 1010.53 1010.29 1010.06 1009.86 1009.72 1009.66 1009.68 1009.77 1009.91 1010.06 1010.18 1010.23 1010.20 1010.07 1009.84 1009.54
1005.28 1006.53 1007.77 1008.84 1009.69 1010.29 1010.67 1010.90 1011.05 1011.18 1011.36 1011.59 1011.86 1012.14 1012.39 1012.57 1012.65 1012.64 1012.54 1012.38 1012.18 1011.98 1011.79 1011.60 1011.43 1011.24 1011.04 1010.82 1010.58 1010.35 1010.14 1009.97 1009.87 1009.83 1009.85 1009.91 1009.98 1010.03 1010.03 1009.95 1009.80 1009.57 1009.29
1005.23 1006.45 1007.66 1008.73 1009.59 1010.22 1010.63 1010.88 1011.04 1011.18 1011.35 1011.58 1011.84 1012.12 1012.38 1012.58 1012.70 1012.72 1012.67 1012.55 1012.39 1012.22 1012.04 1011.87 1011.71 1011.54 1011.36 1011.16 1010.94 1010.72 1010.51 1010.33 1010.18 1010.08 1010.02 1009.99 1009.97 1009.94 1009.88 1009.76 1009.59 1009.37 1009.11
1005.32 1006.47 1007.62 1008.66 1009.51 1010.14 1010.56 1010.83 1011.00 1011.15 1011.30 1011.51 1011.74 1012.00 1012.25 1012.46 1012.59 1012.66 1012.64 1012.57 1012.46 1012.33 1012.20 1012.07 1011.94 1011.81 1011.66 1011.50 1011.32 1011.12 1010.92 1010.72 1010.55 1010.39 1010.27 1010.16 1010.05 1009.95 1009.83 1009.68 1009.50 1009.30 1009.09
1005.48 1006.53 1007.59 1008.56 1009.37 1009.99 1010.43 1010.72 1010.91 1011.06 1011.22 1011.40 1011.60 1011.83 1012.05 1012.25 1012.39 1012.47 1012.49 1012.47 1012.42 1012.34 1012.27 1012.19 1012.12 1012.03 1011.94 1011.82 1011.67 1011.51 1011.32 1011.12 1010.93 1010.74 1010.56 1010.39 1010.23 1010.07 1009.91 1009.75 1009.58 1009.40 1009.23
1005.63 1006.55 1007.50 1008.38 1009.14 1009.75 1010.21 1010.53 1010.76 1010.94 1011.10 1011.27 1011.46 1011.65 1011.84 1012.01 1012.14 1012.23 1012.29 1012.32 1012.32 1012.30 1012.29 1012.27 1012.25 1012.21 1012.16 1012.08 1011.97 1011.83 1011.67 1011.49 1011.29 1011.09 1010.90 1010.70 1010.51 1010.32 1010.15 1009.97 1009.82 1009.67 1009.54
1005.71 1006.49 1007.31 1008.10 1008.82 1009.42 1009.91 1010.28 1010.57 1010.79 1010.99 1011.16 1011.33 1011.50 1011.66 1011.80 1011.92 1012.02 1012.10 1012.16 1012.21 1012.25 1012.29 1012.32 1012.34 1012.35 1012.33 1012.28 1012.20 1012.09 1011.95 1011.79 1011.62 1011.43 1011.24 1011.05 1010.86 1010.68 1010.50 1010.34 1010.20 1010.07 1009.97
1005.68 1006.32 1007.02 1007.73 1008.41 1009.02 1009.55 1009.99 1010.36 1010.65 1010.89 1011.09 1011.26 1011.41 1011.54 1011.66 1011.77 1011.86 1011.96 1012.04 1012.13 1012.22 1012.29 1012.36 1012.41 1012.44 1012.44 1012.41 1012.34 1012.26 1012.15 1012.02 1011.88 1011.73 1011.58 1011.42 1011.26 1011.09 1010.94 1010.79 1010.66 1010.55 1010.45
1005.54 1006.06 1006.66 1007.30 1007.96 1008.59 1009.17 1009.70 1010.15 1010.53 1010.83 1011.07 1011.26 1011.40 1011.51 1011.60 1011.69 1011.78 1011.88 1011.98 1012.09 1012.20 1012.30 1012.39 1012.45 1012.48 1012.48 1012.45 1012.40 1012.33 1012.25 1012.16 1012.07 1011.97 1011.86 1011.76 1011.64 1011.51 1011.38 1011.25 1011.13 1011.02 1010.91
1005.33 1005.76 1006.28 1006.87 1007.52 1008.18 1008.83 1009.44 1009.97 1010.43 1010.80 1011.09 1011.29 1011.43 1011.53 1011.60 1011.67 1011.74 1011.84 1011.94 1012.06 1012.17 1012.28 1012.37 1012.42 1012.45 1012.44 1012.41 1012.35 1012.30 1012.24 1012.19 1012.15 1012.10 1012.06 1012.01 1011.94 1011.86 1011.76 1011.64 1011.52 1011.40 1011.28
1005.08 1005.45 1005.92 1006.49 1007.14 1007.83 1008.53 1009.20 1009.82 1010.34 1010.77 1011.09 1011.31 1011.45 1011.53 1011.59 1011.64 1011.69 1011.77 1011.86 1011.97 1012.09 1012.18 1012.26 1012.30 1012.31 1012.29 1012.24 1012.19 1012.15 1012.11 1012.09 1012.10 1012.11 1012.12 1012.13 1012.11 1012.07 1011.99 1011.89 1011.77 1011.63 1011.49
1004.84 1005.19 1005.64 1006.19 1006.84 1007.54 1008.27 1008.99 1009.65 1010.21 1010.67 1011.01 1011.23 1011.37 1011.45 1011.48 1011.51 1011.54 1011.60 1011.68 1011.77 1011.87 1011.96 1012.02 1012.04 1012.04 1012.00 1011.96 1011.91 1011.87 1011.85 1011.87 1011.91 1011.97 1012.03 1012.08 1012.11 1012.09 1012.04 1011.96 1011.83 1011.69 1011.53
1004.64 1004.98 1005.42 1005.96 1006.59 1007.29 1008.02 1008.74 1009.40 1009.97 1010.44 1010.78 1011.00 1011.13 1011.19 1011.21 1011.21 1011.23 1011.27 1011.33 1011.41 1011.49 1011.57 1011.61 1011.63 1011.62 1011.59 1011.54 1011.50 1011.48 1011.49 1011.53 1011.60 1011.69 1011.78 1011.86 1011.92 1011.93 1011.90 1011.82 1011.71 1011.56 1011.41
1004.48 1004.83 1005.26 1005.77 1006.37 1007.03 1007.72 1008.41 1009.04 1009.59 1010.03 1010.35 1010.56 1010.68 1010.72 1010.73 1010.73 1010.73 1010.76 1010.81 1010.88 1010.96 1011.02 1011.07 1011.09 1011.09 1011.07 1011.04 1011.02 1011.02 1011.05 1011.11 1011.20 1011.30 1011.41 1011.51 1011.57 1011.60 1011.58 1011.52 1011.42 1011.29 1011.16
1004.36 1004.71 1005.12 1005.59 1006.13 1006.73 1007.35 1007.96 1008.53 1009.03 1009.43 1009.72 1009.92 1010.03 1010.08 1010.08 1010.08 1010.09 1010.11 1010.16 1010.22 1010.30 1010.37 1010.42 1010.47 1010.49 1010.49 1010.50 1010.51 1010.54 1010.59 1010.66 1010.76 1010.87 1010.97 1011.06 1011.12 1011.15 1011.14 1011.10 1011.03 1010.94 1010.84
1004.28 1004.61 1004.98 1005.39 1005.85 1006.35 1006.88 1007.40 1007.89 1008.32 1008.68 1008.95 1009.14 1009.25 1009.31 1009.33 1009.34 1009.36 1009.40 1009.45 1009.53 1009.61 1009.70 1009.78 1009.85 1009.91 1009.96 1010.00 1010.05 1010.11 1010.18 1010.26 1010.35 1010.45 1010.53 1010.60 1010.65 1010.67 1010.67 1010.65 1010.61 1010.57 1010.51
1004.23 1004.53 1004.84 1005.16 1005.53 1005.93 1006.35 1006.77 1007.18 1007.55 1007.87 1008.12 1008.31 1008.45 1008.53 1008.59 1008.64 1008.69 1008.74 1008.82 1008.91 1009.01 1009.12 1009.23 1009.34 1009.44 1009.53 1009.62 1009.71 1009.80 1009.89 1009.97 1010.05 1010.12 1010.17 1010.22 1010.24 1010.25 1010.25 1010.24 1010.24 1010.24 1010.24
1004.24 1004.48 1004.71 1004.95 1005.22 1005.51 1005.83 1006.16 1006.50 1006.82 1007.11 1007.37 1007.59 1007.76 1007.90 1008.00 1008.09 1008.18 1008.27 1008.38 1008.48 1008.60 1008.73 1008.87 1009.01 1009.15 1009.29 1009.42 1009.55 1009.66 1009.76 1009.84 1009.90 1009.94 1009.96 1009.97 1009.96 1009.95 1009.94 1009.95 1009.98 1010.02 1010.08
1004.32 1004.49 1004.65 1004.81 1004.99 1005.19 1005.43 1005.69 1005.98 1006.27 1006.56 1006.84 1007.09 1007.31 1007.51 1007.67 1007.82 1007.95 1008.08 1008.20 1008.33 1008.46 1008.60 1008.76 1008.92 1009.09 1009.27 1009.43 1009.58 1009.72 1009.82 1009.89 1009.93 1009.94 1009.92 1009.89 1009.84 1009.81 1009.79 1009.81 1009.85 1009.93 1010.03
Thickness
5826 5825 5822 5820 5815 5809 5805 5801 5797 5794 5791 5788 5784 5781 5780 5782 5783 5783 5782 5780 5779 5779 5778 5778 5777 5776 5774 5773 5772 5771 5769 5769 5770 5766 5763 5768 5773 5774 5774 5774 5774 5773 5772
5824 5823 5822 5820 5815 5810 5806 5802 5798 5796 5793 5790 5788 5786 5785 5784 5784 5785 5784 5782 5781 5781 5781 5779 5778 5777 5775 5773 5772 5770 5767 5768 5770 5764 5757 5754 5760 5768 5774 5773 5772 5773 5772
5826 5823 5822 5820 5817 5811 5808 5806 5801 5799 5796 5794 5791 5788 5786 5784 5784 5783 5783 5783 5783 5782 5781 5780 5779 5778 5776 5773 5771 5770 5767 5764 5767 5768 5760 5752 5748 5756 5766 5769 5771 5771 5771
5833 5828 5825 5822 5820 5816 5813 5809 5804 5801 5798 5795 5791 5787 5782 5780 5782 5784 5785 5785 5784 5783 5782 5781 5780 5778 5777 5774 5772 5772 5769 5766 5762 5765 5766 5764 5761 5753 5752 5761 5768 5770 5769
5840 5833 5830 5826 5824 5822 5817 5812 5806 5802 5800 5796 5793 5789 5786 5785 5786 5786 5785 5784 5784 5783 5783 5782 5780 5778 5776 5774 5773 5772 5770 5768 5764 5763 5764 5763 5763 5761 5753 5750 5758 5764 5768
5845 5839 5835 5831 5826 5824 5820 5815 5807 5802 5800 5796 5794 5790 5787 5785 5784 5783 5782 5782 5783 5783 5783 5782 5780 5777 5775 5774 5772 5771 5770 5767 5766 5764 5764 5762 5759 5757 5755 5751 5752 5755 5762
5845 5839 5834 5830 5826 5823 5821 5816 5808 5802 5800 5796 5793 5791 5789 5786 5784 5782 5782 5781 5782 5782 5783 5783 5780 5777 5775 5773 5772 5771 5769 5767 5765 5763 5763 5763 5763 5762 5760 5755 5752 5753 5757
5844 5838 5834 5831 5827 5824 5821 5816 5809 5803 5799 5796 5794 5792 5790 5786 5785 5784 5783 5782 5782 5783 5784 5783 5780 5777 5775 5774 5772 5770 5768 5767 5764 5763 5762 5761 5762 5763 5761 5757 5752 5747 5749
5841 5838 5834 5830 5825 5822 5820 5817 5811 5804 5800 5797 5794 5792 5790 5788 5786 5786 5784 5783 5783 5783 5782 5781 5778 5776 5774 5772 5770 5767 5766 5765 5763 5762 5761 5759 5760 5761 5761 5760 5756 5747 5739
5838 5836 5834 5830 5828 5825 5821 5818 5812 5805 5801 5798 5795 5793 5790 5788 5786 5785 5783 5782 5782 5781 5780 5778 5776 5774 5772 5770 5767 5765 5765 5762 5761 5760 5758 5757 5757 5757 5758 5757 5755 5752 5745
5835 5832 5831 5830 5827 5825 5820 5814 5810 5805 5800 5797 5794 5793 5790 5788 5786 5784 5782 5781 5780 5779 5777 5775 5773 5771 5769 5767 5764 5762 5762 5760 5758 5758 5756 5754 5754 5752 5752 5752 5751 5749 5746
5830 5828 5827 5826 5822 5818 5815 5810 5807 5804 5801 5797 5793 5790 5788 5786 5783 5782 5781 5779 5777 5776 5774 5772 5770 5768 5766 5764 5761 5758 5759 5757 5755 5753 5752 5751 5751 5749 5747 5745 5744 5744 5744
5822 5821 5818 5817 5815 5814 5811 5809 5805 5802 5800 5796 5791 5787 5784 5782 5780 5779 5778 5777 5775 5773 5772 5770 5767 5765 5764 5762 5760 5758 5756 5754 5753 5751 5749 5747 5745 5742 5741 5740 5739 5739 5740
5812 5811 5808 5808 5808 5807 5805 5803 5802 5800 5797 5793 5788 5783 5780 5778 5777 5776 5775 5774 5772 5770 5768 5767 5765 5763 5762 5759 5757 5755 5753 5751 5750 5748 5747 5745 5742 5739 5737 5736 5734 5734 5732
5803 5802 5801 5799 5799 5799 5798 5797 5796 5795 5790 5786 5783 5779 5778 5775 5773 5772 5771 5770 5769 5768 5766 5764 5762 5761 5759 5757 5754 5751 5750 5747 5745 5744 5742 5741 5740 5738 5735 5733 5730 5729 5726
5794 5795 5794 5793 5791 5790 5789 5788 5787 5786 5783 5778 5776 5775 5772 5770 5767 5766 5765 5764 5763 5762 5761 5759 5758 5755 5755 5753 5751 5747 5745 5743 5740 5737 5736 5735 5733 5732 5730 5728 5726 5724 5720
5786 5785 5784 5784 5783 5783 5781 5779 5778 5778 5775 5771 5769 5767 5765 5762 5760 5759 5757 5755 5755 5755 5754 5754 5753 5750 5748 5746 5745 5742 5739 5737 5735 5732 5730 5729 5730 5726 5723 5721 5720 5718 5716
5776 5775 5776 5775 5776 5776 5774 5772 5771 5769 5766 5763 5761 5760 5757 5754 5753 5750 5748 5748 5747 5746 5746 5746 5746 5744 5742 5739 5737 5734 5733 5732 5730 5728 5725 5723 5721 5720 5717 5715 5713 5712 5710
5769 5768 5768 5768 5766 5765 5764 5762 5761 5759 5757 5754 5752 5751 5749 5746 5744 5742 5741 5741 5740 5739 5739 5739 5738 5737 5734 5732 5729 5726 5725 5724 5723 5722 5721 5718 5715 5712 5709 5706 5704 5703 5702
5759 5758 5758 5757 5754 5753 5754 5751 5749 5747 5746 5745 5744 5743 5742 5738 5736 5734 5733 5733 5732 5731 5731 5730 5730 5729 5727 5725 5722 5719 5717 5715 5715 5715 5713 5711 5708 5705 5702 5699 5696 5694 5694
5747 5747 5745 5742 5741 5742 5741 5738 5737 5736 5737 5737 5736 5734 5733 5730 5729 5728 5726 5725 5723 5722 5721 5721 5721 5721 5720 5717 5714 5711 5709 5708 5707 5705 5704 5703 5700 5697 5694 5692 5690 5688 5686
5734 5734 5731 5729 5730 5731 5728 5725 5725 5727 5728 5727 5725 5724 5723 5722 5722 5718 5716 5715 5713 5711 5711 5710 5711 5712 5711 5708 5705 5702 5701 5700 5698 5697 5696 5693 5690 5687 5685 5683 5682 5680 5678
5722 5722 5719 5717 5718 5718 5717 5714 5715 5717 5716 5715 5714 5713 5713 5712 5711 5709 5706 5705 5704 5703 5702 5701 5700 5701 5701 5699 5696 5693 5691 5690 5688 5689 5686 5683 5679 5677 5676 5675 5674 5672 5670
5711 5709 5707 5704 5704 5705 5705 5705 5706 5707 5705 5703 5703 5703 5703 5703 5702 5700 5699 5697 5696 5694 5693 5692 5691 5691 5690 5688 5685 5683 5681 5679 5676 5676 5674 5672 5670 5669 5668 5666 5665 5664 5663
5700 5698 5695 5692 5692 5693 5693 5694 5695 5695 5693 5692 5692 5692 5694 5694 5693 5691 5690 5688 5687 5685 5683 5683 5682 5680 5678 5678 5675 5673 5671 5670 5666 5664 5663 5662 5660 5659 5659 5658 5657 5656 5655
5689 5686 5684 5682 5682 5682 5680 5681 5683 5682 5680 5679 5680 5681 5683 5685 5684 5682 5680 5678 5676 5674 5672 5672 5671 5671 5669 5667 5663 5660 5659 5658 5655 5654 5653 5652 5651 5650 5649 5648 5646 5645 5644